THORAD DELTA 1 DEB, 42623

Orbit data source: Space-Track

THORAD DELTA 1 DEB, 42623 is space debris in SSO originally from a launch on Fri, 15 Nov 1974 UTC launched from the Air Force Western Test Range (AFWTR). Debris objects in space refer to the collection of defunct objects orbiting the Earth. Examples of debris include non-operational satellites, rocket bodies, and fragments generated from explosions, collisions, or faulty payload assembly.

Loading next visibility...
Identifier
42623, 1974-089GQ
Orbit
SSO
Country
Flag of USUS
Related business
Manufacturer
Unknown
Mission
Spacecraft
Bus & Motor
Unknown
Mass
Unknown
Launch date (UTC)
1974-11-15 (52 years ago)
Launch vehicle
Unknown
Launch site
Air Force Western Test Range (AFWTR)
Object type
Payload
Rocket body
Debris
Shape & HBR
Unknown shape, 0.1 m
Radar Cross Section
Small (<0.1 m²)

Expand to show TLE details & history
Last TLE update: 6 days ago

TLE from 6 days ago
0 THORAD DELTA 1 DEB
1 42623U 74089GQ  26167.74512713 -.00000039  00000-0  50719-4 0  9996
2 42623 102.2184 181.1024 0071958 180.9055 179.1890 12.43798998232206
Epoch: 2026-06-16T17:52Z
TLE epoch observation values (Epoch: 2026-06-16T17:52:58.984Z)
Latitude
0.00007°
Longitude
7.84386°
Altitude
1,549.71 km
Speed
7.067 km/s
True Right ascension
12h 04m 24s
True Declination
0° 00' 00"
Sunlit
Object was in daylight at epoch
Visualization orbit readout
Latitude
Unknown
Longitude
Unknown
Altitude
Unknown
Speed
Unknown
Apparent Right ascension
Unknown
Apparent Declination
Unknown
Sunlit
N/A
Visualization observer readout
Local Sidereal Time
21:43:34
Azimuth
Unknown
Elevation
Unknown
Doppler factor
Unknown
Orbital elements
Apogee altitude
1,544.727 km
Perigee altitude
1,431.518 km
Semi-major axis
7,866.259 km
Eccentricity
0.0072
Inclination
102.2184°
RAAN
181.1024°
Arg. of periapsis
180.9055°
True anomaly
179.20057°
Mean anomaly
179.189°
Eccentric anomaly
179.19479°
Mean motion
3.11093 °/min
Orbital period
115.72 mins
BSTAR
0.000050719
Loading maneuver chart data...
Computing Atmospheric mass density...

Documentation

Showing up to 5 results
|